Location: Unspecified
(0.0000°N, 0.0000°E)
Time: 01:56:05
(UTC+02:00)

Cosmos 1733 Rocket - Visible Passes

Search period start: 05 August 2015 00:00
Search period end: 15 August 2015 00:00
Orbit: 605 x 628 km, 82.5° (Epoch: 03 August)

Date Brightness Start Highest point End Pass type
(mag) Time Alt. Az. Time Alt. Az. Time Alt. Az.
05 Aug 6.1 06:37:34 10° NE 06:40:10 16° E 06:43:00 10° SE visible
06 Aug 4.7 06:52:52 10° NNE 06:56:49 35° E 07:00:50 10° SSE visible
07 Aug 3.1 07:09:05 10° N 07:13:26 84° E 07:17:46 10° S visible
08 Aug 3.4 07:25:55 10° NNW 07:30:01 41° W 07:34:05 10° SSW visible
09 Aug 6.0 06:06:24 10° NE 06:08:56 16° E 06:11:41 10° SE visible
10 Aug 4.6 06:21:40 10° NNE 06:25:35 34° E 06:29:34 10° SSE visible
11 Aug 3.0 06:37:51 10° N 06:42:11 82° E 06:46:31 10° S visible
12 Aug 3.3 06:54:40 10° NNW 06:58:46 42° W 07:02:51 10° SSW visible
13 Aug 5.8 05:35:14 10° NE 05:37:41 15° E 05:40:22 10° ESE visible
13 Aug 4.3 07:12:16 10° NW 07:15:25 19° W 07:17:38 13° SW visible
14 Aug 4.8 05:50:27 10° NNE 05:53:23 30° ENE 05:53:23 30° ENE visible
